Location: Unspecified
(47.9110°N, 14.3980°E)
Time: 17:45:25
(UTC+00:00)

SPOT 1/Viking Rocket - Pass Details

Date: 06 August 2020
Orbit: 776 x 795 km, 98.5° (Epoch: 25 September)

Event Time Altitude Azimuth Distance (km) Brightness Sun altitude
Exits shadow 20:01:26 17° 154° (SSE) 1,894 5.0 -13.4°
Maximum altitude 20:05:26 73° 72° (ENE) 834 3.6 -13.9°
Drops below altitude 10° 20:10:40 10° 349° (N) 2,376 6.9 -14.5°
Sets 20:13:00 0° 348° (NNW) 3,310 7.8 -14.8°
